Weather History for College Park, MD

Change the Weather History Date:

Wednesday, September 4, 2013

  Actual Average Record
Temperature  
Mean Temperature 71 °F -  
Max Temperature 84 °F 85 °F 97 °F (1953)
Min Temperature 58 °F 63 °F 51 °F (1958)
Cooling Degree Days 6    
Growing Degree Days 21 (Base 50)    
Moisture  
Dew Point 56 °F    
Average Humidity 65    
Maximum Humidity 100    
Minimum Humidity 28    
Precipitation  
Precipitation 0.00 in - - ()
Sea Level Pressure  
Sea Level Pressure 30.03 in    
Wind  
Wind Speed 2 mph (NW)    
Max Wind Speed 8 mph    
Max Gust Speed -    
Visibility 10 miles    
Events      
Averages and records for this station are not official NWS values.
T = Trace of Precipitation, MM = Missing Value Source: NWS Daily Summary

Daily Weather History Graph

Daily Weather History Graph

Search for Another Location

Airport:

Trip Planner

Search our weather history database for the weather conditions in past years. The results will help you decide how hot, cold, wet, or windy it might be!

Date:

Astronomy

Sep. 04, 2013 Rise Set
Actual Time 6:39 AM EDT 7:33 PM EDT
Civil Twilight 6:12 AM EDT 8:00 PM EDT
Nautical Twilight 5:39 AM EDT 8:32 PM EDT
Astronomical Twilight 5:06 AM EDT 9:05 PM EDT
Moon 5:49 AM EDT (9/4) 6:52 PM EDT (9/4)
Length of Visible Light 13h 48m
Length of Day
12h 53m
Waning Crescent, 1% of the Moon is Illuminated
Sep 4
Waning Crescent
Sep 5
New
Sep 12
First Quarter
Sep 19
Full
Sep 26
Last Quarter

Hourly Weather History & Observations

Time (EDT) Temp. Dew Point Humidity Pressure Visibility Wind Dir Wind Speed Gust Speed Precip Events Conditions
12:05 AM 67.8 °F 58.1 °F 71% 29.97 in 10.0 mi NNW 3.5 mph - N/A   Clear
12:25 AM 68.0 °F 57.6 °F 69% 29.97 in 10.0 mi Calm Calm - N/A   Clear
12:45 AM 66.7 °F 58.5 °F 75% 29.97 in 10.0 mi Calm Calm - N/A   Clear
1:05 AM 65.5 °F 58.3 °F 77% 29.97 in 10.0 mi Calm Calm - N/A   Clear
1:25 AM 64.4 °F 59.0 °F 83% 29.98 in 10.0 mi Calm Calm - N/A   Clear
1:45 AM 63.9 °F 59.0 °F 84% 29.98 in 10.0 mi Calm Calm - N/A   Clear
2:05 AM 63.3 °F 59.2 °F 86% 29.99 in 10.0 mi Calm Calm - N/A   Clear
2:25 AM 62.8 °F 59.0 °F 87% 29.99 in 10.0 mi Calm Calm - N/A   Clear
2:45 AM 61.7 °F 59.2 °F 91% 30.00 in 10.0 mi Calm Calm - N/A   Clear
3:05 AM 61.2 °F 59.4 °F 94% 30.00 in 10.0 mi Calm Calm - N/A   Clear
3:25 AM 60.6 °F 59.2 °F 95% 30.00 in 10.0 mi Calm Calm - N/A   Clear
3:45 AM 60.6 °F 59.2 °F 95% 30.01 in 10.0 mi Calm Calm - N/A   Clear
4:05 AM 60.3 °F 59.0 °F 96% 30.01 in 10.0 mi Calm Calm - N/A   Clear
4:25 AM 59.9 °F 59.2 °F 97% 30.01 in 10.0 mi Calm Calm - N/A   Clear
4:45 AM 59.5 °F 59.2 °F 99% 30.02 in 10.0 mi Calm Calm - N/A   Clear
5:05 AM 59.5 °F 58.5 °F 96% 30.02 in 10.0 mi Calm Calm - N/A   Clear
5:25 AM 59.0 °F 58.5 °F 98% 30.03 in 10.0 mi Calm Calm - N/A   Clear
5:45 AM 58.6 °F 58.1 °F 98% 30.03 in 10.0 mi Calm Calm - N/A   Clear
6:05 AM 58.5 °F 58.5 °F 100% 30.03 in 10.0 mi Calm Calm - N/A   Clear
6:25 AM 58.5 °F 58.5 °F 100% 30.04 in 10.0 mi Calm Calm - N/A   Clear
6:45 AM 58.3 °F 58.1 °F 99% 30.05 in 5.0 mi Calm Calm - N/A   Clear
7:05 AM 58.8 °F 58.6 °F 99% 30.06 in 7.0 mi Calm Calm - N/A   Clear
7:25 AM 60.3 °F 59.0 °F 96% 30.07 in 3.0 mi Calm Calm - N/A   Clear
7:45 AM 62.4 °F 58.8 °F 88% 30.07 in 5.0 mi Calm Calm - N/A   Clear
8:05 AM 65.1 °F 58.5 °F 79% 30.07 in 10.0 mi Calm Calm - N/A   Clear
8:25 AM 68.0 °F 57.9 °F 70% 30.08 in 10.0 mi WNW 3.5 mph - N/A   Clear
8:45 AM 69.3 °F 58.3 °F 68% 30.08 in 10.0 mi NW 6.9 mph - N/A   Clear
9:05 AM 70.3 °F 57.6 °F 64% 30.08 in 10.0 mi NW 5.8 mph - N/A   Clear
9:25 AM 71.6 °F 57.7 °F 62% 30.08 in 10.0 mi North 6.9 mph - N/A   Clear
9:45 AM 72.0 °F 57.7 °F 61% 30.08 in 10.0 mi WNW 4.6 mph - N/A   Clear
10:05 AM 73.4 °F 57.6 °F 58% 30.08 in 10.0 mi North 5.8 mph - N/A   Clear
10:25 AM 74.5 °F 57.6 °F 55% 30.08 in 10.0 mi NNE 6.9 mph - N/A   Clear
10:45 AM 75.0 °F 57.7 °F 55% 30.08 in 10.0 mi North 5.8 mph - N/A   Clear
11:05 AM 75.4 °F 57.4 °F 53% 30.08 in 10.0 mi North 4.6 mph - N/A   Clear
11:25 AM 76.1 °F 57.6 °F 53% 30.08 in 10.0 mi North 3.5 mph - N/A   Clear
11:45 AM 77.0 °F 57.4 °F 51% 30.08 in 10.0 mi NNW 6.9 mph - N/A   Clear
12:05 PM 77.4 °F 55.9 °F 47% 30.07 in 10.0 mi NNW 3.5 mph - N/A   Clear
12:25 PM 77.7 °F 55.6 °F 46% 30.07 in 10.0 mi ESE 3.5 mph - N/A   Clear
12:45 PM 78.8 °F 54.5 °F 43% 30.07 in 10.0 mi Calm Calm - N/A   Clear
1:05 PM 79.2 °F 53.2 °F 41% 30.07 in 10.0 mi NE 5.8 mph - N/A   Clear
1:25 PM 80.4 °F 51.8 °F 37% 30.06 in 10.0 mi NW 4.6 mph - N/A   Clear
1:45 PM 81.5 °F 52.9 °F 37% 30.05 in 10.0 mi NE 4.6 mph - N/A   Clear
2:05 PM 81.7 °F 52.5 °F 36% 30.05 in 10.0 mi Calm Calm - N/A   Clear
2:25 PM 82.4 °F 50.7 °F 33% 30.04 in 10.0 mi Calm Calm - N/A   Clear
2:45 PM 83.1 °F 51.4 °F 33% 30.04 in 10.0 mi North 3.5 mph - N/A   Clear
3:05 PM 83.5 °F 52.2 °F 34% 30.03 in 10.0 mi WSW 4.6 mph - N/A   Clear
3:25 PM 83.5 °F 50.0 °F 31% 30.03 in 10.0 mi North 3.5 mph - N/A   Clear
3:45 PM 84.0 °F 49.6 °F 30% 30.02 in 10.0 mi NNW 3.5 mph - N/A   Clear
4:05 PM 84.2 °F 51.4 °F 32% 30.02 in 10.0 mi SW 8.1 mph - N/A   Clear
4:25 PM 83.8 °F 51.4 °F 33% 30.02 in 10.0 mi Calm Calm - N/A   Clear
4:45 PM 84.4 °F 49.3 °F 29% 30.02 in 10.0 mi WSW 4.6 mph - N/A   Clear
5:05 PM 84.4 °F 47.8 °F 28% 30.02 in 10.0 mi West 5.8 mph - N/A   Clear
5:25 PM 84.2 °F 47.5 °F 28% 30.02 in 10.0 mi WSW 6.9 mph - N/A   Clear
5:45 PM 84.0 °F 49.6 °F 30% 30.02 in 10.0 mi WNW 4.6 mph - N/A   Clear
6:05 PM 83.5 °F 49.6 °F 31% 30.02 in 10.0 mi WNW 6.9 mph - N/A   Clear
6:25 PM 83.3 °F 50.2 °F 32% 30.02 in 10.0 mi West 4.6 mph - N/A   Clear
6:45 PM 82.6 °F 50.2 °F 32% 30.02 in 10.0 mi West 3.5 mph - N/A   Clear
7:05 PM 81.5 °F 50.2 °F 34% 30.02 in 10.0 mi West 3.5 mph - N/A   Clear
7:25 PM 80.4 °F 50.2 °F 35% 30.02 in 10.0 mi Calm Calm - N/A   Clear
7:45 PM 79.2 °F 51.4 °F 38% 30.02 in 10.0 mi WSW 3.5 mph - N/A   Clear
8:05 PM 78.1 °F 54.5 °F 44% 30.02 in 10.0 mi Calm Calm - N/A   Clear
8:25 PM 71.4 °F 58.3 °F 63% 30.03 in 10.0 mi Calm Calm - N/A   Clear
8:45 PM 69.6 °F 59.4 °F 70% 30.03 in 10.0 mi Calm Calm - N/A   Clear
9:05 PM 68.9 °F 59.9 °F 73% 30.03 in 10.0 mi Calm Calm - N/A   Clear
9:25 PM 67.8 °F 60.1 °F 76% 30.03 in 10.0 mi Calm Calm - N/A   Clear
9:45 PM 67.3 °F 60.3 °F 78% 30.04 in 10.0 mi Calm Calm - N/A   Clear
10:05 PM 66.4 °F 60.6 °F 82% 30.04 in 10.0 mi Calm Calm - N/A   Clear
10:25 PM 66.2 °F 60.8 °F 83% 30.04 in 10.0 mi Calm Calm - N/A   Clear
10:45 PM 65.3 °F 61.0 °F 86% 30.05 in 10.0 mi Calm Calm - N/A   Clear
11:05 PM 64.8 °F 61.0 °F 88% 30.05 in 10.0 mi Calm Calm - N/A   Clear
11:25 PM 64.8 °F 61.2 °F 88% 30.04 in 10.0 mi Calm Calm - N/A   Clear
11:45 PM 64.4 °F 61.5 °F 90% 30.05 in 10.0 mi Calm Calm - N/A   Clear